Weather reports worldwide

Advertisment
Nice, France (7690): temperature & dewpoint: 14.08.2019 06:00:00 - 20.08.2019 06:00:00 (CEST)Nice, France (7690): temperature 5cm: 14.08.2019 06:00:00 - 20.08.2019 06:00:00 (CEST)Nice, France (7690): temperature -20cm & temperature -100cm: 14.08.2019 06:00:00 - 20.08.2019 06:00:00 (CEST)Nice, France (7690): wind speed & gusts: 14.08.2019 06:00:00 - 20.08.2019 06:00:00 (CEST)Nice, France (7690): wind direction: 14.08.2019 06:00:00 - 20.08.2019 06:00:00 (CEST)Nice, France (7690): reduced air pressure: 14.08.2019 06:00:00 - 20.08.2019 06:00:00 (CEST)Nice, France (7690): visibility: 14.08.2019 06:00:00 - 20.08.2019 06:00:00 (CEST)Nice, France (7690): sunshine duration: 14.08.2019 06:00:00 - 20.08.2019 06:00:00 (CEST)Nice, France (7690): precipitation: 14.08.2019 06:00:00 - 20.08.2019 06:00:00 (CEST)
Date & Time tt [°C] td [°C] tt 5cm [°C] tt -20cm [°C] tt -100cm [°C] ff [km/h] ff [kn] fx [km/h] fx [kn] dd ppp [hPa] vv [km] sd [min] rr [mm]
20.08.2019 06:00:00 23,3 19,5 22,5 27,3 26,1 7 4 11 6 NW 1016,2 20 0 0,0
20.08.2019 05:00:00 23,4 19,5 22,8 27,3 26,1 6 4 10 6 NNW 1016,5 20 0 0,0
20.08.2019 04:00:00 23,8 19,7 22,9 27,2 26,1 5 3 9 5 N 1016,4 20 0 0,0
20.08.2019 03:00:00 23,9 19,6 23,1 27,2 26,1 3 2 8 4 NNW 1016,7 20 0 0,0
20.08.2019 02:00:00 24,3 19,6 23,3 27,2 26,1 5 3 9 5 NNW 1017,0 20 0 0,0
20.08.2019 01:00:00 23,8 19,9 23,5 27,2 26,1 6 3 11 6 NW 1017,2 20 0 0,0
20.08.2019 00:00:00 24,4 19,7 23,8 27,2 26,1 9 5 13 7 NW 1017,5 20 0 0,0
19.08.2019 23:00:00 24,9 20,6 23,9 27,2 26,1 2 1 5 3 SW 1017,7 20 0 0,0
19.08.2019 22:00:00 25,2 20,0 24,2 27,2 26,1 3 2 6 3 SSW 1017,6 20 0 0,0
19.08.2019 21:00:00 25,5 20,3 24,9 27,2 26,1 5 3 8 5 S 1017,0 20 6 0,0
19.08.2019 20:00:00 25,9 20,7 26,2 27,1 26,1 5 3 8 5 S 1016,7 20 20 0,0
19.08.2019 19:00:00 26,1 20,4 28,9 27,2 26,1 7 4 16 8 S 1016,8 20 29 0,0
19.08.2019 18:00:00 26,4 20,5 29,5 27,2 26,0 10 5 16 9 S 1016,8 20 43 0,0
19.08.2019 17:00:00 27,2 21,0 35,0 27,2 26,1 11 6 16 9 S 1016,9 20 60 0,0
19.08.2019 16:00:00 27,4 21,2 30,8 27,2 26,0 10 5 17 9 S 1016,9 20 49 0,0
19.08.2019 15:00:00 26,8 21,1 31,6 27,2 26,1 10 6 17 9 SSE 1017,3 20 50 0,0
19.08.2019 14:00:00 26,9 20,7 33,7 27,2 26,0 11 6 18 10 SE 1017,2 20 60 0,0
19.08.2019 13:00:00 26,7 20,5 33,6 27,2 26,0 12 7 17 9 SE 1016,9 20 60 0,0
19.08.2019 12:00:00 26,6 20,7 33,3 27,2 26,1 13 7 18 10 SSE 1016,7 20 60 0,0
19.08.2019 11:00:00 26,2 20,8 32,2 27,2 26,0 12 6 15 8 S 1016,4 20 60 0,0
19.08.2019 10:00:00 25,8 19,9 28,7 27,2 26,0 6 3 15 8 WSW 1016,2 20 60 0,0
19.08.2019 09:00:00 24,4 17,4 25,2 27,2 26,0 11 6 19 10 NNW 1016,2 20 58 0,0
19.08.2019 08:00:00 22,3 17,0 21,5 27,2 26,1 12 7 19 10 NNW 1016,1 20 60 0,0
19.08.2019 07:00:00 21,3 17,1 20,9 27,2 26,0 11 6 18 10 NNW 1015,6 35 0 0,0
19.08.2019 06:00:00 21,3 17,7 20,9 27,2 26,0 13 7 21 11 NNW 1015,5 35 0 0,0
19.08.2019 05:00:00 21,7 18,1 21,2 27,2 26,1 10 5 17 9 NNW 1015,5 35 0 0,0
19.08.2019 04:00:00 21,7 18,3 21,3 27,1 26,0 12 7 19 10 NW 1015,8 35 0 0,0
19.08.2019 03:00:00 22,2 18,8 21,8 27,1 26,0 10 5 17 9 NNW 1015,8 35 0 0,0
19.08.2019 02:00:00 22,5 19,1 22,1 27,1 26,0 13 7 17 9 NW 1016,2 35 0 0,0
19.08.2019 01:00:00 23,0 19,4 22,6 27,1 26,0 10 5 16 9 NNW 1016,4 35 0 0,0
19.08.2019 00:00:00 24,0 19,7 23,8 27,1 26,0 7 4 16 9 N 1016,5 35 0 0,0
18.08.2019 23:00:00 25,0 20,5 24,1 27,1 26,0 10 5 14 8 E 1016,0 35 0 0,0
18.08.2019 22:00:00 25,0 20,0 24,1 27,1 26,0 8 4 11 6 E 1015,8 35 0 0,0
18.08.2019 21:00:00 24,9 20,2 24,3 27,1 26,0 6 3 8 5 ESE 1015,1 35 8 0,0
18.08.2019 20:00:00 25,4 20,6 26,5 27,1 26,0 5 3 10 5 ESE 1015,1 35 60 0,0
18.08.2019 19:00:00 26,1 20,2 29,8 27,1 26,0 6 4 10 5 ESE 1015,4 20 57 0,0
18.08.2019 18:00:00 26,6 20,7 31,4 27,0 26,0 7 4 13 7 SE 1015,7 20 58 0,0
18.08.2019 17:00:00 26,3 20,2 31,7 27,1 26,0 9 5 15 8 SE 1015,8 20 60 0,0
18.08.2019 16:00:00 26,6 20,4 32,1 27,1 26,0 11 6 18 10 SSE 1016,1 20 58 0,0
18.08.2019 15:00:00 26,6 20,9 33,7 27,1 26,0 13 7 18 10 SE 1016,2 20 60 0,0
18.08.2019 14:00:00 26,8 21,3 33,0 27,1 26,0 13 7 18 10 SSE 1016,3 20 60 0,0
18.08.2019 13:00:00 26,8 21,1 33,2 27,1 26,0 13 7 16 9 SSE 1016,5 20 60 0,0
18.08.2019 12:00:00 26,6 21,4 30,4 27,1 26,0 13 7 17 9 SE 1016,5 19 51 0,0
18.08.2019 11:00:00 26,0 20,8 28,5 27,1 26,0 11 6 16 9 E 1016,5 20 25 0,0
18.08.2019 10:00:00 25,3 19,4 26,4 27,1 26,0 6 4 17 9 ENE 1016,1 25 10 0,0
18.08.2019 09:00:00 24,1 17,1 23,2 27,1 26,0 12 7 21 11 NNW 1016,0 25 13 0,0
18.08.2019 08:00:00 22,3 17,0 21,7 27,1 26,0 15 8 23 12 NNW 1015,8 25 15 0,0
18.08.2019 07:00:00 21,6 17,0 21,5 27,1 26,0 13 7 19 10 NNW 1015,6 30 0 0,0
18.08.2019 06:00:00 21,9 17,3 21,8 27,1 26,0 14 7 17 9 NNW 1015,4 30 0 0,0
18.08.2019 05:00:00 22,1 17,5 22,1 27,1 26,0 14 8 18 10 NNW 1015,5 30 0 0,0
18.08.2019 04:00:00 22,2 17,8 21,9 27,1 26,0 13 7 18 10 NNW 1015,8 30 0 0,0
18.08.2019 03:00:00 22,3 18,3 22,1 27,1 26,0 12 7 16 8 NNW 1015,8 30 0 0,0
18.08.2019 02:00:00 22,7 18,7 22,5 27,0 26,0 11 6 16 8 NNW 1016,1 30 0 0,0
18.08.2019 01:00:00 23,2 19,1 22,7 27,0 26,0 10 5 11 6 NNW 1016,3 30 0 0,0
18.08.2019 00:00:00 23,8 19,7 23,2 27,0 26,0 8 4 11 6 NNW 1016,3 30 0 0,0
17.08.2019 23:00:00 24,4 20,5 23,3 27,0 26,0 2 1 6 3 WSW 1016,2 30 0 0,0
17.08.2019 22:00:00 24,6 20,5 23,8 27,0 26,0 0 0 8 4 N 1016,2 30 0 0,0
17.08.2019 21:00:00 24,9 20,6 24,4 27,0 26,0 5 3 14 7 SSW 1016,0 30 10 0,0
17.08.2019 20:00:00 25,2 21,3 26,9 27,0 26,0 9 5 13 7 S 1015,9 30 60 0,0
17.08.2019 19:00:00 26,2 21,0 30,4 27,0 26,0 9 5 15 8 S 1015,8 40 60 0,0
17.08.2019 18:00:00 26,8 20,6 31,2 27,0 26,0 11 6 17 9 S 1015,9 40 58 0,0
17.08.2019 17:00:00 26,4 20,7 30,8 27,0 26,0 15 8 21 11 S 1016,1 40 48 0,0
17.08.2019 16:00:00 27,0 21,5 31,3 27,0 26,0 15 8 22 12 S 1016,3 40 51 0,0
17.08.2019 15:00:00 26,9 20,5 33,0 27,0 26,0 14 8 18 10 S 1016,5 40 53 0,0
17.08.2019 14:00:00 27,3 19,9 34,6 27,0 26,0 13 7 19 10 S 1016,9 40 60 0,0
17.08.2019 13:00:00 27,3 18,9 31,8 27,0 26,0 10 6 17 9 S 1017,2 40 51 0,0
17.08.2019 12:00:00 26,2 20,1 31,5 27,0 26,0 8 4 11 6 SE 1017,2 40 57 0,0
17.08.2019 11:00:00 26,4 20,0 27,7 27,1 26,0 8 4 11 6 SE 1017,2 40 18 0,0
17.08.2019 10:00:00 26,0 18,4 26,3 27,0 26,0 3 2 18 10 NNW 1016,7 40 34 0,0
17.08.2019 09:00:00 23,8 15,3 23,4 27,1 26,0 13 7 23 12 NNW 1016,6 40 22 0,0
17.08.2019 08:00:00 22,4 15,0 21,3 27,1 26,0 13 7 19 10 NNW 1016,4 40 21 0,0
17.08.2019 07:00:00 21,6 15,0 21,0 27,0 25,9 14 8 23 12 NNW 1016,1 40 0 0,0
17.08.2019 06:00:00 21,5 15,1 20,7 27,0 26,0 17 9 23 12 NNW 1016,0 40 0 0,0
17.08.2019 05:00:00 22,0 15,1 21,4 27,1 26,0 16 9 23 12 NNW 1015,9 40 0 0,0
17.08.2019 04:00:00 22,1 15,4 21,5 27,0 26,0 14 7 22 12 NNW 1015,8 40 0 0,0
17.08.2019 03:00:00 22,4 15,5 21,9 27,0 26,0 16 9 22 12 NW 1016,2 40 0 0,0
17.08.2019 02:00:00 22,6 15,9 21,9 26,9 26,0 16 9 21 12 NW 1016,5 40 0 0,0
17.08.2019 01:00:00 23,3 16,1 22,7 27,0 26,0 12 6 18 10 NW 1016,4 40 0 0,0
17.08.2019 00:00:00 23,8 16,8 23,2 26,9 26,0 11 6 14 7 NW 1016,3 40 0 0,0
16.08.2019 23:00:00 24,4 18,1 23,2 26,9 26,0 0 0 6 3 N 1016,2 40 0 0,0
16.08.2019 22:00:00 25,0 19,8 24,0 26,9 26,0 3 2 5 3 E 1015,8 40 0 0,0
16.08.2019 21:00:00 25,1 20,4 24,4 26,9 26,0 2 1 8 4 SSE 1015,4 40 0 0,0
16.08.2019 20:00:00 25,7 21,1 26,0 26,9 26,0 5 3 9 5 SE 1014,8 40 18 0,0
16.08.2019 19:00:00 26,7 20,5 28,3 26,9 26,0 7 4 10 6 E 1014,6 40 34 0,0
16.08.2019 18:00:00 26,5 20,3 29,9 26,9 26,0 8 4 10 6 E 1015,0 40 47 0,0
16.08.2019 17:00:00 26,5 20,6 28,9 27,0 26,0 9 5 15 8 ESE 1015,2 40 27 0,0
16.08.2019 16:00:00 27,3 20,4 32,3 26,9 26,0 11 6 17 9 ESE 1015,5 40 58 0,0
16.08.2019 15:00:00 27,6 19,9 33,3 27,0 26,0 12 7 18 10 E 1015,8 52 60 0,0
16.08.2019 14:00:00 27,3 19,6 34,5 27,0 26,0 13 7 19 10 ESE 1015,9 40 60 0,0
16.08.2019 13:00:00 27,4 18,4 34,0 27,0 26,0 9 5 18 10 SE 1016,2 40 60 0,0
16.08.2019 12:00:00 26,8 18,1 33,5 27,0 26,0 13 7 17 9 SSE 1016,0 40 60 0,0
16.08.2019 11:00:00 27,1 15,5 32,6 27,0 26,0 5 3 14 8 NW 1015,9 40 60 0,0
16.08.2019 10:00:00 26,4 13,8 27,5 27,0 26,0 11 6 27 15 NNW 1015,7 40 60 0,0
16.08.2019 09:00:00 23,5 13,4 24,3 27,0 26,0 18 10 25 14 NNW 1015,6 40 60 0,0
16.08.2019 08:00:00 21,8 13,7 21,1 27,1 26,0 18 10 32 17 NNW 1015,1 40 60 0,0
16.08.2019 07:00:00 20,9 13,6 20,0 27,0 25,9 14 8 20 11 NNW 1014,7 40 2 0,0
16.08.2019 06:00:00 20,9 13,8 20,4 27,0 26,0 16 9 22 12 NW 1014,1 40 0 0,0
16.08.2019 05:00:00 20,8 14,0 20,4 27,0 26,0 19 10 25 13 NNW 1013,7 40 0 0,0
16.08.2019 04:00:00 21,2 14,4 20,7 27,0 26,0 16 8 21 12 NNW 1013,8 40 0 0,0
16.08.2019 03:00:00 21,7 14,6 21,2 27,0 26,0 12 7 20 11 NNW 1013,8 40 0 0,0
16.08.2019 02:00:00 22,2 14,8 21,7 27,0 26,0 13 7 18 10 NNW 1013,7 40 0 0,0
16.08.2019 01:00:00 22,6 15,2 22,0 26,9 26,0 13 7 17 9 NNW 1013,6 40 0 0,0
16.08.2019 00:00:00 23,3 16,3 22,7 26,9 26,0 12 6 26 14 NW 1013,8 40 0 0,0
15.08.2019 23:00:00 25,1 20,1 24,7 26,9 26,0 21 11 33 18 ENE 1013,6 40 0 0,0
15.08.2019 22:00:00 25,3 19,9 25,0 27,0 26,0 27 15 34 18 E 1013,3 40 0 0,0
15.08.2019 21:00:00 25,6 19,5 25,2 26,9 26,0 27 14 34 18 E 1013,0 40 13 0,0
15.08.2019 20:00:00 26,1 18,0 27,1 26,9 26,0 21 11 26 14 E 1012,7 40 52 0,0
15.08.2019 19:00:00 26,6 18,7 29,1 26,9 26,0 19 11 23 13 E 1012,5 40 60 0,0
15.08.2019 18:00:00 27,1 18,7 31,4 26,9 26,0 16 9 21 11 ENE 1012,9 40 60 0,0
15.08.2019 17:00:00 27,2 17,4 34,5 26,9 26,0 9 5 21 11 SSE 1013,6 40 60 0,0
15.08.2019 16:00:00 27,4 19,5 31,6 27,0 26,0 11 6 18 10 S 1014,0 40 51 0,0
15.08.2019 15:00:00 27,8 19,6 34,1 27,0 26,0 13 7 18 10 SSE 1014,4 50 60 0,0
15.08.2019 14:00:00 27,4 20,0 34,3 27,0 26,0 14 8 18 10 SE 1014,7 50 60 0,0
15.08.2019 13:00:00 27,2 18,5 34,5 27,0 26,0 11 6 14 8 SE 1015,2 20 60 0,0
15.08.2019 12:00:00 27,3 18,0 34,1 27,1 26,0 9 5 14 8 SE 1015,5 50 60 0,0
15.08.2019 11:00:00 27,1 17,3 28,6 27,1 26,0 5 3 10 5 ESE 1015,6 50 47 0,0
15.08.2019 10:00:00 27,2 13,9 29,1 27,1 26,0 8 5 24 13 NW 1015,7 40 60 0,0
15.08.2019 09:00:00 24,6 12,9 25,5 27,1 26,0 10 5 22 12 NNW 1015,6 40 60 0,0
15.08.2019 08:00:00 22,2 12,4 21,2 27,1 26,0 11 6 37 20 NNW 1015,5 40 60 0,0
15.08.2019 07:00:00 20,9 12,3 20,5 27,0 26,0 17 9 27 14 NNW 1015,1 40 3 0,0
15.08.2019 06:00:00 21,3 12,4 20,7 27,1 26,0 17 9 28 15 NNW 1014,8 30 0 0,0
15.08.2019 05:00:00 21,4 12,5 20,8 27,1 26,0 19 10 23 12 NNW 1014,8 30 0 0,0
15.08.2019 04:00:00 21,5 12,3 20,8 27,1 26,0 15 8 19 11 NNW 1014,9 30 0 0,0
15.08.2019 03:00:00 22,1 12,4 21,3 27,1 26,0 16 9 22 12 NNW 1015,0 30 0 0,0
15.08.2019 02:00:00 22,3 12,5 21,6 27,0 26,0 17 9 23 12 NNW 1015,1 30 0 0,0
15.08.2019 01:00:00 22,9 12,2 22,2 27,0 26,0 13 7 20 11 NNW 1014,9 30 0 0,0
15.08.2019 00:00:00 23,3 11,7 22,6 27,0 26,0 14 8 21 11 NNW 1014,8 30 0 0,0
14.08.2019 23:00:00 23,7 12,3 23,0 27,0 26,0 14 7 17 9 NW 1014,8 30 0 0,0
14.08.2019 22:00:00 25,2 16,3 23,8 27,0 26,0 8 4 11 6 W 1014,5 30 0 0,0
14.08.2019 21:00:00 26,1 15,8 24,8 27,1 26,1 4 2 8 4 SSW 1014,2 30 14 0,0
14.08.2019 20:00:00 26,8 16,7 29,4 27,0 26,0 5 3 11 6 S 1013,9 30 60 0,0
14.08.2019 19:00:00 27,0 18,0 32,0 27,0 26,0 5 3 11 6 S 1013,6 40 58 0,0
14.08.2019 18:00:00 27,6 18,0 33,8 27,1 26,0 5 3 11 6 SSE 1013,5 40 60 0,0
14.08.2019 17:00:00 27,6 18,3 34,0 27,1 26,1 8 4 14 7 SSE 1013,6 40 60 0,0
14.08.2019 16:00:00 28,0 17,8 35,4 27,1 26,0 10 5 15 8 SSE 1013,8 40 60 0,0
14.08.2019 15:00:00 28,3 15,9 35,1 27,1 26,1 11 6 16 9 SE 1013,9 40 60 0,0
14.08.2019 14:00:00 27,8 20,1 34,9 27,1 26,0 11 6 15 8 SSE 1013,9 30 60 0,0
14.08.2019 13:00:00 27,5 19,8 34,5 27,2 26,1 11 6 14 8 SE 1013,9 30 60 0,0
14.08.2019 12:00:00 27,2 21,5 31,4 27,2 26,1 6 3 9 5 SSE 1013,9 30 36 0,0
14.08.2019 11:00:00 27,0 19,6 32,8 27,2 26,0 7 4 17 9 ESE 1013,6 30 60 0,0
14.08.2019 10:00:00 26,5 13,6 25,3 27,2 26,0 13 7 25 14 NNW 1013,3 30 41 0,0
14.08.2019 09:00:00 24,3 12,9 24,2 27,2 26,1 17 9 24 13 NW 1012,7 30 36 0,0
14.08.2019 08:00:00 23,3 12,9 22,4 27,3 26,1 16 9 27 15 NNW 1012,1 40 60 0,0
14.08.2019 07:00:00 22,2 13,3 21,4 27,2 26,1 10 5 20 11 N 1011,8 40 4 0,0
14.08.2019 06:00:00 22,4 14,0 21,7 27,3 26,1 15 8 25 13 NNW 1011,3 40 0 0,0

tt = temperature
td = dewpoint
tt 5cm = temperature 5cm
tt -20cm = temperature -20cm
tt -100cm = temperature -100cm
ff = wind speed
fx = gusts
dd = wind direction
ppp = reduced air pressure
vv = visibility
sd = sunshine duration
rr = precipitation

Next stations